[[{"header":{"parameterUnit":"m.s-1","parameterCategory":1,"la1":30.2991,"la2":30.254,"lo1":-89.0895,"lo2":-89.0444,"dy":0.0017,"dx":0.0017,"nx":28,"ny":28,"refTime":"2024-06-27T09:00:00:Z","depth":0,"parameterNumber":2,"parameterNumberName":"U-component_of_WINDS"},"data":[0,0,0,0,0,0,0,0,0,0,0,0,0,0,0,0,0,0,0,0,0,0,0,0,0,0,0,0,0,0,0,0,0,0,0,0,0,0,0,0,0,0,0,0,0,0,0,0,0,0,0,0,0,0,0,0,0,0,3.6627,3.6629,0,3.6833,3.6835,3.6838,3.6821,3.6818,3.6814,3.6812,3.7022,3.703,3.7039,0,0,0,0,0,0,0,0,0,0,0,0,0,3.6217,3.6225,3.6627,3.6629,3.6632,3.6833,3.6835,3.6838,3.6821,3.6817,3.6814,3.681,3.7019,3.7029,3.704,0,0,0,0,0,0,0,0,0,0,0,0,0,3.6406,3.6227,3.6626,3.6648,3.6652,3.6832,3.6835,3.6839,3.6822,3.6817,3.6813,3.6808,3.7016,3.7028,3.7041,3.7213,0,0,3.708,3.7086,0,0,0,0,0,0,0,0,3.6396,3.6421,3.6642,3.6647,3.6651,3.6796,3.6768,3.6964,3.6823,3.6757,3.6811,3.6806,3.6951,3.6969,3.7018,3.7223,3.7232,3.7081,3.7089,3.7094,3.7098,0,0,0,0,0,0,0,3.6383,3.6412,3.6708,3.6645,3.6651,3.6646,3.6668,3.6805,3.6878,3.6763,3.6762,3.6787,3.6952,3.7005,3.7022,3.7235,3.7081,3.7092,3.71,3.7105,3.759,3.7595,0,0,0,0,0,0,3.6365,3.6402,3.6702,3.6714,3.6509,3.6658,3.6682,3.6754,3.6876,3.689,3.679,3.6785,3.6986,3.7007,3.703,3.7237,3.7094,3.7106,3.7114,3.7585,3.7592,3.7597,0,0,0,0,0,0,3.6356,3.6392,3.6693,3.6558,3.6596,3.667,3.6751,3.6761,3.6814,3.6897,3.691,3.6831,3.6983,3.7012,3.7167,3.7245,3.7112,3.7124,3.7579,3.7587,3.7594,3.7656,0,0,0,0,0,0,3.6344,3.6389,3.6455,3.656,3.6603,3.6828,3.6756,3.6768,3.6836,3.6831,3.6939,3.6952,3.6981,3.7148,3.718,3.726,3.7134,3.7572,3.7583,3.7592,3.7647,3.7665,3.768,0,0,0,0,0,3.633,3.6465,3.6459,3.6495,3.6688,3.6833,3.6858,3.6889,3.6842,3.6909,3.6963,3.6949,3.7231,3.7164,3.72,3.7285,3.7568,3.758,3.7591,3.764,3.7661,3.7679,0,0,0,0,0,0,3.6368,3.6479,3.6473,3.6646,3.673,3.683,3.6915,3.6911,3.701,3.7001,3.7035,3.706,3.7216,3.7266,3.719,3.7457,3.7393,3.7413,3.7418,3.7439,3.7455,3.7439,3.7144,0,0,0,0,0,3.6396,3.6504,3.6596,3.6739,3.6782,3.6841,3.6905,3.6922,3.701,3.7046,3.711,3.7196,3.7304,3.7375,3.7479,3.7655,3.7677,3.773,3.7747,3.776,3.7775,3.787,3.7894,3.7636,3.7636,3.7636,0,0,3.6456,3.653,3.6596,3.6749,3.6816,3.6926,3.6871,3.6991,3.7073,3.7064,3.7214,3.7265,3.7363,3.7529,3.7605,3.7575,3.7852,3.7775,3.7784,3.7793,3.7885,3.7909,3.7931,3.7644,3.7642,3.7641,0,0,3.6621,3.6689,3.6815,3.6883,3.6985,3.7023,3.7054,3.7154,3.7187,3.7339,3.7333,3.7431,3.7617,3.7687,3.7746,3.7937,3.7927,3.797,3.8055,3.8146,3.8167,3.8185,3.8251,3.8274,3.7986,3.7986,3.7986,0,3.6682,3.6849,3.688,3.7001,3.7067,3.7064,3.7191,3.7255,3.7386,3.7432,3.7397,3.7629,3.7695,3.7876,3.7922,3.7971,3.8006,3.7957,3.8161,3.818,3.8197,3.826,3.8285,3.799,3.799,3.7989,3.7989,0,3.6918,3.7034,3.7123,3.7249,3.7326,3.7449,3.7498,3.7572,3.7582,3.7624,3.7777,3.7856,3.7975,3.802,3.8032,3.8203,3.8181,3.8154,3.809,3.8226,3.8285,3.831,3.7997,3.7995,3.7994,3.7993,0,0,3.7112,3.7253,3.7285,3.7341,3.7453,3.7543,3.7665,3.7782,3.7843,3.7934,3.8036,3.8193,3.8168,3.8236,3.8255,3.8336,3.8479,3.8299,3.8302,3.8328,3.867,3.8688,3.8716,3.8474,3.8479,3.8483,3.8661,0,3.7286,3.7503,3.7534,3.7726,3.7832,3.783,3.7937,3.8016,3.8059,3.8155,3.8202,3.8312,3.8272,3.8312,3.8392,3.8445,3.8548,3.8433,3.8568,3.8573,3.8542,3.8748,3.8768,3.8933,3.8685,3.8689,3.8692,0,3.7518,3.7614,3.7816,3.7912,3.7958,3.8053,3.8161,3.8253,3.8343,3.8369,3.8444,3.8453,3.8579,3.8511,3.8685,3.8605,3.8663,3.8697,3.8704,3.8717,3.8639,3.8764,3.8986,3.901,3.873,3.8727,3.8724,0,3.7636,3.7816,3.796,3.8008,3.8124,3.8191,3.8242,3.8328,3.8395,3.849,3.8534,3.8643,3.8702,3.8785,3.8823,3.8771,3.8993,3.8929,3.9016,3.9015,3.9062,3.9058,3.9295,3.9103,3.9102,3.9102,3.9101,0,3.7827,3.795,3.8014,3.8102,3.8239,3.8274,3.8409,3.8458,3.8534,3.8631,3.8637,3.8728,3.8773,3.887,3.8901,3.9038,3.9066,3.9089,3.9095,3.9087,3.9084,3.9124,3.9113,3.9108,3.9107,3.9106,3.9104,0,3.7981,3.803,3.8185,3.8282,3.831,3.8406,3.8489,3.8574,3.8616,3.8738,3.8769,3.8834,3.8949,3.8996,3.9137,3.9157,3.9315,3.9313,3.9284,3.9286,3.9369,3.936,3.9638,3.9676,3.9461,3.9463,3.9464,0,3.8098,3.8193,3.83,3.8365,3.8418,3.8524,3.8592,3.863,3.8701,3.881,3.8882,3.8996,3.909,3.9273,3.9333,3.9441,3.9441,3.9531,3.9457,3.9445,3.944,3.9433,3.9441,3.9544,3.9546,3.9548,3.9549,0,3.83,3.8319,3.8418,3.8525,3.8607,3.8693,3.8777,3.883,3.8881,3.896,3.9078,3.915,3.9293,3.9407,3.9517,3.957,3.9568,3.9572,3.9598,3.959,3.9568,3.9579,3.9319,3.9565,3.9564,3.9562,3.9561,3.9561,3.8438,3.8521,3.8609,3.8718,3.8786,3.8864,3.8948,3.9,3.9098,3.9218,3.9234,3.9359,3.9446,3.9594,3.9651,3.9749,3.9726,3.9763,3.9773,3.9781,3.9785,3.9554,3.977,3.977,3.9769,3.9769,3.9769,0,3.8639,3.8695,3.8795,3.8912,3.8998,3.8989,3.9081,3.9153,3.9263,3.9345,3.9436,3.957,3.968,3.9749,3.9859,3.9924,3.9926,3.9952,3.9946,3.9958,3.9801,3.9767,3.9948,3.9948,3.9948,3.9948,3.9948,3.9948,3.8753,3.8892,3.8921,3.9094,3.9149,3.9272,3.9325,3.9396,3.9461,3.961,3.9701,3.9745,3.9821,3.9937,4.0037,4.0054,4.0094,4.0121,4.0136,3.9988,3.9969,3.9951,3.9919,4.013,4.013,4.0285,4.0286,4.0287]},{"header":{"parameterUnit":"m.s-1","parameterCategory":1,"la1":30.2991,"la2":30.254,"lo1":-89.0895,"lo2":-89.0444,"dy":0.0017,"dx":0.0017,"nx":28,"ny":28,"refTime":"2024-06-27T09:00:00:Z","depth":0,"parameterNumber":3,"parameterNumberName":"V-component_of_WINDS"},"data":[0,0,0,0,0,0,0,0,0,0,0,0,0,0,0,0,0,0,0,0,0,0,0,0,0,0,0,0,0,0,0,0,0,0,0,0,0,0,0,0,0,0,0,0,0,0,0,0,0,0,0,0,0,0,0,0,0,0,5.1661,5.1662,0,5.1798,5.18,5.1801,5.1761,5.1759,5.1756,5.1753,5.1889,5.1895,5.1901,0,0,0,0,0,0,0,0,0,0,0,0,0,5.1357,5.1362,5.1661,5.1662,5.1664,5.1798,5.18,5.1802,5.1762,5.1758,5.1755,5.1752,5.1887,5.1894,5.1902,0,0,0,0,0,0,0,0,0,0,0,0,0,5.1491,5.1364,5.166,5.166,5.1662,5.1798,5.18,5.1802,5.1763,5.1758,5.1754,5.175,5.1885,5.1894,5.1903,5.2045,0,0,5.1932,5.1936,0,0,0,0,0,0,0,0,5.1483,5.1502,5.1659,5.1661,5.1662,5.1758,5.1742,5.1883,5.1764,5.1724,5.1753,5.1748,5.1849,5.1861,5.1896,5.2052,5.2057,5.1932,5.1938,5.1942,5.1945,0,0,0,0,0,0,0,5.1474,5.1496,5.1715,5.1661,5.1663,5.1651,5.1666,5.1769,5.1808,5.1727,5.1725,5.1742,5.1849,5.1887,5.1899,5.2059,5.1932,5.194,5.1946,5.195,5.2335,5.2339,0,0,0,0,0,0,5.1464,5.1488,5.171,5.1719,5.1561,5.166,5.1676,5.1732,5.1807,5.1815,5.1745,5.174,5.1873,5.1888,5.1903,5.2072,5.1942,5.1951,5.1956,5.233,5.2336,5.2341,0,0,0,0,0,0,5.1458,5.1484,5.1705,5.1603,5.163,5.167,5.1733,5.1737,5.1775,5.1821,5.1827,5.1777,5.187,5.189,5.201,5.2076,5.1955,5.1963,5.2325,5.2332,5.2338,5.2413,0,0,0,0,0,0,5.1449,5.1482,5.1539,5.1605,5.1636,5.1812,5.1737,5.1742,5.1791,5.1785,5.1852,5.1859,5.1868,5.1996,5.2019,5.2087,5.1971,5.2319,5.2328,5.2336,5.2405,5.2422,5.2436,0,0,0,0,0,5.1438,5.1554,5.1542,5.1569,5.1708,5.1816,5.1833,5.1842,5.1797,5.1853,5.1882,5.1857,5.2066,5.2008,5.2034,5.2106,5.2315,5.2325,5.2335,5.2398,5.2419,5.2436,0,0,0,0,0,0,5.1494,5.1563,5.155,5.1691,5.1748,5.1809,5.1879,5.1865,5.1934,5.1925,5.1932,5.1948,5.207,5.21,5.2035,5.2246,5.2183,5.2199,5.2222,5.2242,5.2257,5.2247,5.1979,0,0,0,0,0,5.1523,5.1607,5.1662,5.1781,5.181,5.184,5.1887,5.1889,5.1948,5.1971,5.2009,5.2065,5.2143,5.2194,5.2268,5.2409,5.2421,5.2471,5.2486,5.2499,5.2512,5.2586,5.2607,5.2375,5.2375,5.2374,0,0,5.1583,5.1631,5.1684,5.1793,5.1837,5.1921,5.186,5.1953,5.2015,5.1985,5.21,5.213,5.2192,5.2322,5.2381,5.2351,5.2579,5.2512,5.2522,5.2529,5.2599,5.2621,5.264,5.2382,5.238,5.2379,0,0,5.1736,5.1782,5.1884,5.193,5.1998,5.2016,5.2041,5.2104,5.2122,5.2238,5.2217,5.2289,5.2424,5.2468,5.2509,5.2675,5.2654,5.2699,5.278,5.2852,5.287,5.2886,5.2943,5.2963,5.2712,5.2712,5.2712,0,5.1801,5.193,5.1938,5.2033,5.208,5.2057,5.2159,5.2202,5.2291,5.2322,5.2288,5.2454,5.2495,5.2634,5.2674,5.2708,5.2734,5.2691,5.2867,5.2883,5.2898,5.2953,5.2974,5.2717,5.2716,5.2716,5.2716,0,5.2006,5.2095,5.2169,5.2255,5.2311,5.2409,5.2429,5.2484,5.248,5.2502,5.2618,5.2666,5.2748,5.2781,5.2779,5.2919,5.2897,5.2865,5.2802,5.2925,5.2976,5.2997,5.2724,5.2722,5.2721,5.272,0,0,5.2199,5.2287,5.2314,5.2351,5.2423,5.2491,5.2586,5.2667,5.2713,5.2774,5.2851,5.2964,5.2934,5.298,5.2981,5.3044,5.3169,5.3004,5.3005,5.3031,5.3323,5.3346,5.337,5.3156,5.316,5.3163,5.3317,0,5.2355,5.2525,5.2534,5.2686,5.2766,5.2744,5.2826,5.2878,5.29,5.2969,5.2992,5.3071,5.3027,5.3053,5.3115,5.3141,5.3228,5.313,5.3226,5.3229,5.321,5.3397,5.3423,5.3566,5.3337,5.334,5.3343,0,5.2562,5.2629,5.279,5.2848,5.2882,5.2956,5.3029,5.3097,5.3153,5.3164,5.3214,5.3206,5.33,5.3234,5.3362,5.3295,5.3334,5.3353,5.3359,5.3367,5.3293,5.3409,5.3612,5.3633,5.3375,5.3372,5.337,0,5.2684,5.2814,5.2927,5.296,5.3031,5.3082,5.3114,5.3166,5.3214,5.3277,5.3307,5.3381,5.342,5.3476,5.3487,5.3438,5.3614,5.3549,5.3623,5.3623,5.3661,5.3658,5.3871,5.3689,5.3688,5.3688,5.3687,0,5.2857,5.2956,5.2982,5.3051,5.3159,5.3167,5.3274,5.3301,5.3347,5.3419,5.3404,5.3471,5.3482,5.3551,5.356,5.3662,5.3681,5.3691,5.3691,5.3691,5.369,5.3716,5.3706,5.3693,5.3692,5.3691,5.369,0,5.3012,5.3034,5.3154,5.3211,5.3227,5.3304,5.3351,5.3416,5.3435,5.3526,5.3547,5.3577,5.3657,5.3673,5.3768,5.3773,5.3895,5.3887,5.3877,5.3875,5.3947,5.394,5.4184,5.4216,5.4014,5.4016,5.4017,0,5.3121,5.3196,5.326,5.3308,5.3342,5.3419,5.3467,5.3476,5.3526,5.3595,5.365,5.3729,5.3792,5.392,5.3949,5.402,5.4012,5.4093,5.4023,5.4019,5.4011,5.4006,5.4012,5.4106,5.4108,5.411,5.4111,0,5.3311,5.3317,5.3388,5.3462,5.352,5.3578,5.3633,5.3673,5.3689,5.3745,5.3827,5.3876,5.3972,5.4049,5.412,5.415,5.4133,5.4133,5.4153,5.4154,5.4144,5.4148,5.3911,5.4127,5.4126,5.4125,5.4124,5.4123,5.3445,5.3509,5.3564,5.3642,5.3685,5.3736,5.3799,5.3826,5.3895,5.3974,5.3975,5.4064,5.4115,5.4208,5.4242,5.431,5.4284,5.4315,5.4322,5.4329,5.4335,5.4134,5.4323,5.4322,5.4322,5.4322,5.4321,0,5.3633,5.3666,5.3738,5.3816,5.3876,5.3856,5.3915,5.3967,5.4046,5.4095,5.4158,5.425,5.4324,5.4358,5.443,5.4477,5.4471,5.4496,5.4492,5.4498,5.4355,5.4329,5.4499,5.4499,5.4499,5.4499,5.4499,5.4499,5.3737,5.3845,5.3857,5.3984,5.4016,5.4104,5.4139,5.4185,5.4225,5.4329,5.4391,5.4413,5.4455,5.453,5.4595,5.4603,5.4629,5.4658,5.4661,5.4527,5.4508,5.4491,5.4467,5.4664,5.4664,5.4799,5.48,5.4801]}]]